RH
72 71 70 71 72 72 72 71 72 75 74 73 76 76 76 76 70 41 56 62 58 60 58 40 35 35 33 39 38 37 24 22 24 26 28 31 30 27 26 42 46 48 54 52 47
72 71 71 72 72 72 71 71 73 76 74 73 76 77 76 75 42 34 42 52 59 58 42 45 39 36 32 39 41 35 28 28 30 31 37 40 34 31 33 47 51 52 47 48 46
72 72 72 72 71 71 71 71 74 77 74 72 76 72 70 64 33 28 43 52 57 47 44 40 37 38 40 40 43 43 36 39 43 40 35 37 42 39 37 52 50 63 56 48 46
72 73 72 73 72 72 71 71 73 75 76 73 71 70 70 44 34 21 41 52 56 38 38 38 35 37 40 39 40 39 41 39 38 34 33 38 40 49 49 52 44 49 49 47 46
72 74 74 73 73 73 72 72 71 72 77 78 74 68 43 22 19 15 40 41 40 38 43 42 38 39 35 39 40 38 46 29 31 29 42 41 47 49 49 45 42 42 46 45 45
72 75 75 73 73 73 74 74 70 72 78 79 71 67 26 28 16 16 24 40 43 40 42 40 45 43 44 47 40 44 34 28 25 26 34 46 48 46 45 39 42 44 48 45 43
73 75 74 74 72 73 74 72 70 71 75 76 70 22 26 26 17 16 23 34 44 45 46 47 44 41 44 49 50 48 47 36 25 23 22 39 52 56 43 40 44 44 46 47 43
74 76 75 76 72 73 74 70 70 73 76 74 51 28 29 20 13 13 16 20 24 26 38 29 18 20 22 24 34 43 48 46 26 22 21 26 48 52 42 40 44 43 43 45 46
75 77 77 75 73 74 74 67 70 68 62 58 26 25 31 22 13 12 17 23 23 21 20 16 19 21 18 24 31 26 26 31 24 21 20 25 44 50 42 38 40 39 40 43 44
76 78 78 72 73 74 69 61 45 42 26 18 18 25 24 26 14 15 16 22 22 22 23 23 22 18 17 16 20 39 17 18 20 20 20 30 49 45 40 36 35 35 35 37 42
76 80 79 70 68 65 50 28 25 27 22 25 23 26 24 20 13 17 21 21 18 20 24 26 22 26 21 20 20 20 19 19 18 21 20 41 46 46 35 35 34 34 35 35 38
78 80 78 64 56 62 45 46 52 31 32 25 22 22 19 19 18 18 20 21 20 20 26 22 26 24 23 20 19 18 16 17 17 23 20 35 47 46 36 36 37 37 37 36 36
78 82 78 62 52 42 49 55 51 57 40 38 25 23 24 18 20 22 23 23 22 21 20 21 24 22 23 22 18 17 22 21 21 21 20 27 41 46 37 29 28 31 35 38 44
80 79 69 58 40 33 39 37 55 62 40 37 27 23 22 26 28 18 20 26 24 26 22 22 20 22 20 19 22 17 22 22 27 27 25 28 27 44 42 34 36 44 48 51 52
81 76 55 52 30 33 38 42 63 54 83 33 26 20 21 23 28 20 20 18 19 19 25 28 25 22 19 25 24 24 28 31 31 32 34 32 43 54 41 44 67 67 57 56 58
78 70 48 35 36 38 43 67 61 51 99 50 30 29 20 24 28 25 23 18 22 19 19 19 23 24 25 25 26 26 29 27 31 31 64 33 42 53 51 69 71 61 54 57 60
72 51 37 29 34 43 66 58 46 58 31 32 32 28 23 24 27 27 26 27 22 25 23 22 22 25 28 21 20 25 23 38 42 60 34 39 42 61 71 63 66 73 67 67 66
68 47 40 29 44 58 58 27 58 34 29 33 30 31 26 22 26 29 28 28 28 23 25 29 36 24 26 30 31 30 32 45 51 47 42 39 66 74 71 62 68 59 56 51 59
63 38 31 30 47 53 29 48 34 32 34 29 27 22 24 23 21 26 33 35 33 28 22 25 22 25 29 31 26 28 31 40 65 45 57 33 55 77 74 72 65 65 53 62 54
42 29 29 36 45 41 33 40 38 38 33 31 18 26 18 24 18 22 28 34 36 35 33 36 36 28 28 30 29 28 30 41 41 63 52 37 53 66 84 75 75 76 79 71 59
40 27 31 39 42 31 39 38 36 36 35 29 30 26 26 24 26 28 33 37 33 32 34 37 36 27 29 33 38 35 36 33 38 45 60 55 59 66 72 79 85 80 71 69 68
42 28 35 39 27 33 39 38 34 32 33 31 28 28 27 28 27 29 32 34 35 34 38 37 32 46 30 34 36 41 41 40 47 51 40 53 68 78 76 81 67 64 54 42 43
27 25 36 34 22 32 39 42 37 33 35 30 32 30 28 27 24 33 35 35 34 38 39 40 43 41 24 42 53 49 38 41 41 53 61 69 57 70 72 50 44 42 36 38 38
27 28 31 34 35 28 33 37 40 38 36 32 33 30 30 32 34 35 34 35 38 38 44 36 38 35 38 36 33 42 34 43 58 71 56 54 48 33 40 46 39 35 36 40 36
35 33 30 27 30 33 32 35 37 40 37 33 34 30 29 32 38 40 40 36 36 46 38 30 37 42 34 41 40 49 55 59 70 65 75 52 56 43 50 44 37 36 39 38 37
27 30 34 35 34 27 36 31 32 45 38 38 31 37 38 33 33 41 42 41 30 42 43 39 42 39 41 34 48 57 52 64 62 52 55 45 51 45 40 36 40 41 41 41 44
45 37 26 44 33 22 27 33 35 38 42 34 31 32 38 38 43 41 39 39 38 48 48 49 41 48 51 36 37 54 62 64 61 47 45 60 58 45 47 47 48 46 41 45 52
Wind_Speed
14 14 13 13 12 12 11 11 11 10 8 8 6 5 5 4 4 15 20 16 15 14 10 2 2 3 1 3 3 2 4 3 1 0 5 7 6 12 10 17 23 13 16 17 21
15 14 14 13 13 12 11 11 10 8 8 6 4 3 3 5 7 21 16 20 15 12 6 6 5 3 3 2 2 2 3 4 7 6 5 14 10 7 5 13 15 19 18 20 22
15 15 14 14 13 12 11 11 9 7 8 6 5 4 4 3 3 9 24 22 14 7 1 2 1 2 3 2 3 2 3 3 8 10 5 8 18 15 5 10 15 17 18 21 22
17 16 16 16 15 13 12 10 7 5 5 6 5 3 3 3 3 11 26 21 12 7 1 3 1 3 3 3 2 4 8 6 6 12 4 5 9 18 19 9 12 13 15 19 22
18 17 17 16 15 14 13 9 4 3 4 4 2 2 0 10 8 18 22 14 5 5 10 3 6 1 3 3 2 2 7 10 8 8 16 16 16 14 17 13 11 13 16 19 20
17 17 17 16 16 15 11 5 2 4 5 6 4 1 4 10 9 17 14 6 10 7 10 9 5 3 6 3 2 6 11 7 8 9 10 8 8 3 14 11 12 14 15 17 20
18 16 16 15 14 14 10 5 4 4 6 7 5 9 23 10 8 14 12 8 7 6 6 9 3 2 1 5 6 6 5 4 12 9 6 5 6 11 10 8 11 13 13 14 19
18 17 17 16 14 12 8 6 4 3 2 3 3 5 8 3 8 22 19 8 13 11 7 9 11 10 6 6 1 1 3 6 7 11 4 4 3 8 9 9 11 12 12 13 15
18 17 17 17 14 11 6 6 2 3 5 3 3 4 5 5 15 18 12 10 7 7 14 10 8 7 6 4 4 3 4 4 1 6 7 7 4 7 9 9 11 11 12 13 14
17 17 16 14 14 10 5 2 17 6 6 2 6 4 7 7 11 15 12 12 6 4 4 10 7 6 11 7 4 4 6 4 8 7 10 2 6 6 7 9 11 12 13 13 14
17 16 15 12 9 8 0 1 3 7 18 11 7 7 4 8 5 22 12 8 7 9 6 8 10 10 9 8 3 4 7 10 7 4 10 3 2 5 8 11 14 15 16 17 17
17 15 15 12 7 6 4 4 3 5 13 10 11 8 8 3 6 24 19 8 14 12 0 6 10 6 5 7 2 4 7 6 7 3 8 2 3 4 8 11 12 15 17 19 21
18 15 15 12 1 6 8 4 4 3 5 6 6 7 6 7 9 15 14 4 9 14 16 11 6 3 0 8 9 2 4 6 9 12 12 8 11 7 6 8 9 11 11 13 16
19 16 14 5 2 1 4 4 3 3 3 7 7 7 10 2 6 13 10 4 5 5 6 9 5 4 4 6 8 8 2 12 12 9 6 6 3 11 5 4 10 12 14 15 17
18 15 9 12 5 3 3 3 2 3 2 4 4 3 9 8 6 15 7 8 8 10 4 3 6 9 6 7 6 5 16 14 13 10 6 8 7 8 4 3 9 10 13 15 15
15 13 4 4 3 3 4 2 2 3 1 2 3 6 3 9 4 8 8 7 2 6 11 7 3 5 6 7 3 12 11 5 4 3 6 4 5 5 2 2 6 10 14 16 16
10 11 7 2 3 4 1 2 3 2 1 3 3 4 4 7 6 8 10 14 7 4 7 2 5 3 7 6 1 13 12 3 4 4 4 2 9 4 7 4 5 12 16 17 17
5 3 5 4 3 2 2 3 1 2 1 1 2 1 5 8 6 8 3 6 10 6 3 6 3 6 7 6 5 5 7 4 6 5 11 12 6 3 5 3 4 10 14 18 18
2 1 2 7 3 2 3 3 2 1 2 4 1 1 3 3 4 3 6 3 5 8 6 6 1 0 3 1 6 4 4 3 5 7 7 3 3 6 6 7 11 15 17 19 20
0 1 2 9 3 2 4 4 2 1 1 1 2 3 3 5 3 5 2 1 1 1 3 3 5 0 3 3 4 4 3 2 2 6 10 8 8 7 2 5 13 15 16 18 20
1 1 3 5 2 6 4 4 4 3 1 4 2 2 3 2 3 3 2 2 1 2 1 1 1 2 3 2 4 0 1 1 4 5 7 10 7 2 3 5 12 14 16 18 17
1 2 4 2 4 4 3 3 3 3 2 2 3 3 1 1 1 1 1 2 0 2 2 1 3 4 4 3 1 1 3 3 4 4 8 10 12 3 4 7 13 16 20 21 20
2 2 2 3 2 4 3 4 3 2 1 2 3 1 1 2 1 1 1 3 1 1 2 2 1 6 3 5 4 5 3 5 6 6 12 10 6 5 6 11 16 21 23 21 20
1 2 4 6 3 5 5 4 4 2 2 3 4 2 2 2 1 2 4 3 1 1 3 4 3 6 6 9 11 13 11 8 7 8 11 12 18 17 19 17 21 23 22 21 20
4 3 1 3 5 6 2 4 5 4 1 1 3 1 3 3 2 3 3 2 4 1 1 3 6 4 11 14 12 11 10 6 10 10 9 14 19 21 13 18 22 22 20 20 21
2 4 2 3 3 4 1 3 6 3 3 3 3 5 4 3 3 4 4 4 3 3 1 1 5 3 12 9 5 12 8 7 9 11 11 16 20 7 16 20 21 21 21 20 23
1 1 2 2 3 3 4 5 5 8 2 2 5 4 5 4 3 2 3 2 2 2 3 3 3 5 6 4 11 7 4 6 6 9 12 16 14 13 22 21 21 21 18 21 23
Wind_Direction
7 4 2 359 357 356 357 358 359 3 7 9 16 17 14 328 125 66 41 352 343 344 334 320 36 35 27 67 20 305 238 226 62 239 95 28 348 43 48 64 57 45 29 350 348
4 1 359 357 357 356 355 358 4 13 13 23 42 52 29 354 43 52 3 351 345 354 356 18 34 26 79 46 28 302 265 51 25 35 40 55 41 13 37 40 24 15 14 7 6
3 0 358 356 356 351 353 358 4 18 28 44 60 53 14 316 73 360 350 339 338 342 266 338 340 28 82 35 24 38 27 109 35 7 333 105 75 40 351 45 19 10 6 9 13
2 1 358 357 352 349 349 351 2 20 27 44 57 43 324 238 61 345 335 329 337 3 72 49 87 130 118 134 68 153 61 48 32 21 6 51 93 68 52 48 17 30 22 18 19
1 0 360 357 354 352 346 339 352 29 36 32 41 23 259 63 18 332 327 324 3 16 33 44 60 91 118 95 101 135 120 63 75 85 73 87 84 88 43 21 22 22 26 24 21
2 1 358 356 356 354 357 357 15 36 35 35 78 186 66 76 339 344 332 358 20 23 41 39 46 37 88 72 32 81 92 91 59 68 75 99 64 118 24 18 24 22 25 22 19
0 357 356 357 356 358 13 69 82 40 25 22 50 83 65 65 8 356 9 27 2 8 58 23 14 63 340 123 359 143 165 138 27 360 53 168 69 42 13 22 34 31 21 21 18
359 355 354 352 357 360 15 61 69 41 5 35 62 80 79 25 353 18 2 36 36 46 77 41 56 77 25 319 63 324 242 249 49 6 32 286 102 42 22 23 33 30 25 15 23
357 354 353 350 353 8 15 44 69 39 19 109 47 80 78 16 11 4 11 354 322 57 46 50 56 48 19 340 195 51 283 283 214 37 340 354 92 45 23 27 32 26 21 16 11
356 352 353 355 355 360 356 31 59 56 8 92 67 78 34 6 359 351 0 0 15 345 48 33 51 68 30 359 319 327 302 277 291 19 338 344 100 60 37 30 27 19 15 12 7
352 350 350 357 7 358 108 203 207 39 41 69 47 79 20 340 17 7 350 334 11 52 31 32 58 54 35 18 6 303 286 287 290 330 322 355 125 57 33 33 24 17 9 5 3
348 346 346 352 22 37 64 70 69 124 97 65 76 79 50 341 17 7 354 52 37 41 153 84 68 32 31 23 356 310 295 304 285 182 311 192 221 110 54 47 33 17 11 2 354
343 343 344 340 72 41 68 67 331 289 87 56 55 37 9 22 47 356 6 49 46 50 53 74 45 24 52 27 353 300 290 320 295 310 268 235 225 191 134 74 53 31 12 1 354
344 345 352 349 97 42 57 350 307 288 134 14 11 29 359 54 67 23 11 6 62 66 68 65 42 33 40 31 350 309 298 311 295 299 290 196 288 188 172 113 32 13 6 358 351
347 343 7 32 107 48 0 315 257 244 246 35 40 23 36 62 311 12 10 55 72 52 254 85 49 21 28 3 339 325 312 297 292 266 276 201 255 107 176 180 1 354 355 352 346
352 346 353 28 60 28 326 294 234 219 268 54 36 10 26 34 41 343 16 45 57 66 67 86 93 36 353 331 346 319 300 265 217 235 246 151 292 156 144 29 342 346 349 347 341
353 44 39 345 36 334 280 208 247 355 124 39 358 13 73 24 40 20 48 44 32 342 30 110 73 115 4 334 179 359 347 294 239 219 322 130 286 359 131 105 349 337 343 343 341
3 41 53 45 342 316 219 222 283 48 25 49 349 48 54 3 46 24 51 61 48 12 16 1 168 20 13 43 320 6 12 8 299 308 308 291 256 69 149 154 338 347 334 334 336
341 58 54 0 336 235 231 49 43 42 5 332 182 40 83 60 9 40 48 60 35 13 13 332 197 332 16 4 335 27 29 6 277 226 266 276 168 163 192 259 342 338 335 329 333
33 120 44 338 336 245 73 110 148 64 333 211 7 356 352 10 354 17 41 58 107 37 295 107 282 52 21 206 91 22 17 232 172 293 310 305 292 303 217 302 325 330 326 329 331
70 269 40 350 267 46 71 87 113 54 281 11 114 115 83 28 5 26 28 143 308 60 74 150 302 123 262 16 334 189 79 329 276 257 295 303 307 89 197 296 319 321 328 327 326
66 304 10 291 43 40 69 80 101 125 64 100 84 86 97 134 138 209 311 17 133 324 349 42 311 291 314 347 305 280 291 275 293 281 275 287 290 165 230 318 319 326 328 328 327
26 330 30 300 72 94 113 88 59 154 52 138 121 46 132 131 277 167 208 123 155 217 344 148 187 299 173 169 199 263 254 238 277 275 272 285 285 175 238 316 332 328 329 329 325
322 328 36 52 33 109 141 135 133 45 104 88 113 128 136 147 127 178 212 187 225 254 59 223 231 264 285 295 301 294 281 251 245 272 307 278 302 312 328 330 328 327 326 324 323
12 69 27 45 59 96 101 146 151 188 104 154 116 167 153 179 196 214 214 221 203 274 140 257 271 244 264 280 294 273 291 265 244 264 276 308 303 317 329 327 324 323 322 323 327
149 155 94 93 138 127 33 164 174 155 183 166 199 155 168 211 232 195 191 213 227 169 212 189 275 284 291 297 246 280 272 272 265 272 272 294 301 353 321 323 324 323 325 325 328
119 79 141 149 155 176 152 157 177 144 89 76 144 154 194 212 200 210 232 250 255 226 204 245 273 297 284 311 306 262 217 240 280 276 293 293 329 321 318 325 320 320 317 328 322